Theta_e
332 334 329 324 312 308 300 302 309 308 309 314 317 314 312 315 313 312 335 342 342 342 343 343 345 346 346 347 348 348 347 345 344 342 341 341 340 340 338 339 341 338 337 338 336 335 335 334 334
330 330 326 321 308 303 300 305 305 309 314 316 316 315 313 314 324 327 333 342 344 343 342 342 342 345 345 345 346 345 345 344 342 341 340 340 338 337 338 337 337 336 335 337 339 337 335 333 333
329 328 319 313 308 303 300 306 308 312 316 316 315 320 316 315 324 329 338 343 341 341 341 341 342 344 343 343 343 344 345 344 341 340 339 338 336 336 336 335 336 336 336 334 338 338 335 333 332
326 328 319 309 305 307 307 308 310 311 315 316 315 311 320 328 327 333 340 343 342 341 342 339 343 344 343 342 342 341 340 343 343 342 339 336 335 335 335 334 335 336 335 333 333 335 334 333 332
327 323 311 308 306 308 310 311 312 310 311 312 312 308 316 327 333 336 339 343 341 342 342 341 342 343 343 343 343 342 339 342 345 344 342 340 338 336 335 335 335 332 334 332 331 335 334 332 332
318 319 308 305 306 309 310 313 313 312 313 313 312 309 317 330 331 336 339 341 343 340 341 342 337 339 341 342 342 342 340 340 344 344 342 341 339 338 337 336 335 332 332 332 333 335 332 331 332
315 312 309 308 307 307 309 314 312 313 313 313 317 308 318 325 333 337 338 340 342 343 341 340 340 338 334 337 337 338 339 338 342 342 342 340 338 338 338 337 337 334 334 332 333 334 332 330 330
319 314 309 309 307 306 312 313 314 314 313 320 320 311 312 324 334 337 338 338 339 340 341 340 340 339 337 336 332 333 336 336 336 335 336 333 334 334 334 332 335 337 335 334 335 333 332 331 329
320 309 306 308 308 310 313 311 315 317 315 318 320 320 323 330 334 333 333 335 336 336 338 339 339 339 339 337 333 329 330 331 331 331 328 328 333 333 332 330 333 335 336 336 335 333 333 332 330
310 307 307 312 314 313 312 313 313 313 315 315 318 324 326 330 331 329 329 329 330 331 335 338 340 339 339 337 337 335 334 334 333 333 334 333 332 332 331 327 328 331 331 333 335 335 334 329 328
308 304 309 311 315 316 314 313 316 313 312 316 316 322 325 327 328 328 328 330 331 334 335 336 338 338 338 338 337 337 336 334 335 334 334 334 332 333 332 333 332 332 323 330 331 331 331 329 328
304 306 308 312 312 313 312 315 312 314 316 317 320 324 325 325 326 327 327 328 330 332 334 337 338 337 338 338 337 337 336 336 335 336 335 336 334 333 332 331 332 334 332 332 332 332 332 330 329
304 305 308 311 311 311 311 312 312 313 317 318 320 320 324 324 326 328 329 330 331 330 333 335 337 335 336 337 337 337 336 336 336 336 336 335 334 333 332 332 331 331 332 331 331 331 330 330 329
306 306 306 309 309 311 308 311 309 314 318 317 318 320 321 323 325 327 328 329 330 331 333 335 335 336 336 334 336 336 336 336 336 337 337 336 335 335 333 333 332 331 331 330 330 329 328 328 329
307 302 305 306 307 306 308 304 305 313 313 314 316 318 320 323 325 325 327 328 330 331 333 334 335 337 336 335 333 335 337 336 336 336 337 336 336 336 334 334 333 332 332 331 330 329 328 327 326
302 302 297 303 305 306 305 295 303 308 309 309 311 314 317 319 320 324 327 328 330 331 331 332 332 335 336 336 337 333 335 337 337 337 337 337 337 336 335 334 333 334 333 332 330 329 327 327 326
300 292 295 298 305 304 303 298 304 308 307 306 307 308 310 312 314 318 320 322 324 326 327 328 330 331 333 336 337 337 336 334 336 337 337 337 336 336 335 335 335 334 333 332 330 329 328 327 326
291 292 293 295 300 302 301 300 305 308 308 307 308 309 310 310 311 314 315 317 318 319 320 320 323 326 330 332 335 336 336 337 336 335 337 336 336 336 335 335 334 333 331 330 329 327 329 327 326
295 294 292 295 300 298 298 298 301 304 305 304 305 306 307 308 312 314 315 316 317 318 318 319 320 323 325 328 329 331 331 334 332 334 335 335 336 336 335 334 333 331 329 328 329 327 325 325 327
295 292 292 296 299 297 295 294 298 300 301 302 303 303 304 305 306 309 311 313 314 315 317 318 318 320 323 326 328 329 330 332 333 334 332 333 334 335 333 330 330 330 328 327 326 326 323 322 324
294 292 292 292 296 297 295 291 294 298 300 302 302 303 303 304 305 307 309 311 312 314 316 316 318 319 320 324 325 327 329 331 330 331 332 334 332 332 333 330 328 328 328 325 324 324 323 319 320
290 297 295 293 291 286 294 284 292 295 296 298 300 301 302 304 306 306 307 308 309 312 317 315 316 316 318 320 321 323 324 323 326 329 330 331 332 332 332 330 328 327 327 325 324 324 323 321 317
291 296 294 292 290 289 289 286 290 294 293 295 299 301 302 303 304 304 305 307 307 308 311 313 313 314 316 319 320 322 323 325 326 327 326 327 329 330 331 331 330 327 326 326 325 323 322 322 320
297 294 293 293 290 283 287 287 287 291 293 295 299 301 302 303 303 304 304 305 307 309 311 313 313 314 318 318 319 320 322 323 323 324 324 325 327 327 328 329 327 327 326 325 324 324 323 322 321
295 290 283 281 281 280 289 286 289 294 296 297 298 300 303 304 303 304 304 306 307 308 308 308 308 307 311 314 318 320 321 322 322 322 321 320 320 321 323 324 325 323 324 324 324 324 323 323 321
291 290 283 277 279 282 287 283 289 297 298 299 300 300 302 302 304 304 305 305 305 304 305 306 304 303 305 306 306 307 308 309 309 309 309 309 310 311 311 311 312 314 318 322 323 322 322 324 323
291 288 292 285 283 281 285 289 294 297 297 298 298 298 300 302 303 304 303 303 303 302 301 302 302 301 301 302 304 304 304 305 305 306 307 307 307 307 306 308 308 309 311 312 314 318 319 319 319
294 295 285 286 278 277 283 285 286 291 293 296 297 298 300 301 302 304 304 302 301 300 300 301 301 300 300 301 301 301 301 301 302 303 302 302 303 303 304 305 306 307 308 310 311 313 315 316 318
290 288 289 289 286 280 279 284 293 293 295 296 298 299 300 301 301 303 304 302 301 300 300 299 299 299 299 299 300 300 299 299 300 299 299 299 300 300 301 301 302 303 304 305 306 307 310 311 314
293 289 290 283 282 285 284 284 295 296 297 297 297 299 301 301 302 302 304 301 299 299 298 298 297 298 297 298 298 297 297 297 298 297 298 298 298 300 300 300 300 300 301 301 302 303 304 304 305
Wind_Speed
18 8 4 5 7 4 5 5 4 7 7 4 3 4 8 8 8 6 9 6 16 15 14 13 9 9 8 7 10 12 12 11 10 8 8 9 8 9 9 10 9 11 10 12 12 12 11 11 10
14 8 4 3 7 5 7 7 6 6 7 5 3 2 2 7 8 9 11 9 18 14 13 12 9 10 9 7 9 9 10 10 9 9 8 8 7 8 8 8 7 9 10 8 9 11 10 9 8
16 5 5 4 4 6 6 6 7 8 6 2 3 2 4 6 5 13 14 16 15 12 11 14 10 10 9 7 6 5 8 10 10 8 8 7 6 7 6 6 6 8 9 9 9 9 9 7 7
6 5 5 7 5 5 7 6 8 8 4 1 3 5 5 5 7 6 15 18 15 13 11 14 12 12 11 10 8 6 6 6 10 11 8 6 6 5 6 5 4 5 6 6 7 7 7 6 5
6 5 4 3 4 5 4 6 7 7 5 6 2 6 5 6 8 12 14 14 14 13 11 13 10 10 11 10 10 9 6 6 10 10 12 10 8 8 6 5 5 2 3 5 4 6 5 4 3
6 3 6 8 5 5 5 6 6 4 3 6 4 5 7 9 9 11 13 13 14 11 9 12 9 8 7 6 6 5 5 5 8 8 8 9 9 7 8 7 6 3 3 3 4 6 3 2 1
8 6 4 2 8 6 7 5 6 5 6 5 2 3 7 9 10 10 11 12 11 13 10 9 11 10 6 7 7 6 6 5 7 7 7 8 8 7 6 5 6 6 5 4 4 6 3 1 2
6 5 5 7 9 6 8 9 4 4 5 3 1 4 8 11 11 8 9 11 12 10 11 10 10 10 10 9 6 6 5 5 5 5 7 6 7 6 6 5 6 6 7 7 6 4 3 3 2
3 7 8 8 7 8 10 10 5 2 5 3 4 3 7 13 12 11 7 9 9 6 8 9 8 10 10 9 9 6 6 6 5 5 5 6 6 9 9 9 7 7 6 6 6 6 5 4 5
7 8 11 1 6 6 11 11 9 6 8 7 7 7 9 12 13 13 13 12 10 11 9 10 11 11 10 8 9 10 9 8 9 9 10 8 8 6 4 1 6 6 8 7 7 8 7 6 7
5 9 1 3 2 5 9 10 8 9 10 8 11 12 12 11 13 13 13 14 14 13 10 11 10 11 10 9 7 6 6 6 7 10 9 8 7 6 6 5 6 7 9 7 9 8 7 10 7
7 3 4 2 1 2 7 6 8 11 4 6 3 7 12 13 13 13 13 13 13 13 14 14 13 10 11 8 7 8 7 7 7 8 11 7 5 7 7 5 6 6 5 8 7 5 6 8 8
10 2 3 1 1 2 2 7 7 9 7 1 2 4 10 11 12 11 11 11 12 13 13 13 14 12 10 10 8 8 8 8 9 8 10 9 8 7 7 7 6 6 6 6 6 7 7 7 9
1 4 4 3 5 3 5 8 3 10 7 7 5 7 9 10 11 10 10 11 12 12 12 12 14 14 12 9 12 8 8 9 9 8 9 12 9 7 7 7 7 7 7 7 7 7 7 7 7
2 6 7 9 7 6 4 13 15 12 5 10 11 9 7 8 10 11 12 12 11 11 11 13 13 13 14 14 10 9 9 9 8 8 12 12 11 10 9 7 7 7 7 8 8 8 8 7 8
6 4 9 9 9 4 5 12 14 4 8 14 13 11 11 13 13 12 12 11 10 10 11 12 10 13 15 13 11 9 9 10 9 8 9 12 13 13 10 8 8 8 7 7 7 7 7 7 7
6 7 15 8 5 4 10 9 12 2 7 11 12 12 13 14 15 14 12 11 11 11 12 13 13 15 14 14 11 11 12 8 10 9 9 12 13 13 11 9 8 9 7 7 7 7 8 8 7
8 9 5 9 4 6 12 14 12 8 7 9 11 12 14 15 18 14 14 13 12 13 12 13 11 13 13 10 9 8 8 9 9 10 9 12 10 12 11 9 10 8 7 9 8 11 8 8 8
6 8 10 4 7 4 12 15 17 16 17 16 17 17 19 20 20 17 16 14 14 14 13 11 11 11 9 8 8 8 9 8 8 9 12 13 11 12 10 8 10 10 8 10 11 8 8 8 5
6 8 8 4 4 4 11 16 18 20 18 19 20 20 20 19 19 17 14 12 13 14 12 12 13 12 10 8 7 7 7 8 9 8 10 12 12 12 10 11 10 10 7 9 11 9 5 5 5
12 11 9 7 4 11 12 16 19 17 19 18 20 20 19 18 17 14 11 11 12 13 12 11 10 10 10 10 7 6 6 4 5 7 7 9 12 12 11 11 9 7 6 7 8 8 8 7 4
12 9 9 7 5 5 2 8 8 6 11 14 13 13 14 11 10 11 10 11 11 9 7 7 8 8 7 8 9 12 8 8 7 6 5 5 7 9 10 9 8 8 6 8 7 7 8 8 8
5 4 7 8 9 9 13 8 6 1 9 14 10 3 1 2 5 7 5 6 4 4 4 5 7 6 6 5 9 8 10 6 4 3 4 5 5 7 7 8 10 10 7 8 8 7 8 7 8
6 7 5 3 4 8 15 12 6 8 7 1 3 5 4 3 2 1 1 1 2 3 3 3 3 3 1 5 7 9 8 8 5 4 4 4 4 4 6 7 8 9 6 6 6 8 9 9 8
13 12 3 4 5 8 3 9 13 7 4 4 2 4 5 4 2 1 3 4 5 6 5 6 6 7 6 6 5 1 2 4 4 4 3 3 3 3 3 5 5 6 5 6 6 7 8 8 8
19 15 4 6 6 1 4 9 3 5 2 2 4 5 8 6 3 4 3 4 5 5 5 6 6 6 6 6 6 5 4 3 3 3 3 3 3 4 6 6 7 9 9 8 8 7 8 9 8
15 15 3 4 2 3 7 10 10 9 7 7 4 2 5 4 3 3 3 3 4 4 4 4 4 5 6 5 5 5 5 5 4 4 4 4 4 4 6 7 7 8 8 8 9 7 8 7 7
6 10 5 5 5 7 7 7 7 3 8 5 9 8 6 3 1 2 3 3 3 2 2 3 4 5 5 5 4 4 5 5 5 4 5 5 5 5 6 7 7 8 8 8 8 7 7 9 8
8 10 7 5 7 3 4 2 3 4 6 8 5 4 8 7 5 4 4 3 3 2 2 2 3 3 4 3 4 4 4 4 4 4 4 5 6 6 7 7 7 8 8 8 8 9 9 10 9
13 15 16 5 6 7 7 7 4 5 9 5 6 1 4 4 5 4 5 5 4 3 2 2 2 2 3 3 4 4 4 4 4 5 5 5 6 6 6 7 7 7 8 9 10 9 10 11 11
Wind_Direction
316 331 270 244 244 224 134 129 99 123 151 66 57 324 25 18 5 41 141 123 122 129 135 148 140 137 143 125 129 133 126 120 114 108 110 107 104 106 101 95 92 76 74 96 92 78 75 75 72
309 317 235 274 267 230 104 123 161 106 76 111 128 187 194 84 67 118 140 156 136 143 146 148 139 136 141 128 127 129 132 129 126 123 122 115 110 108 107 107 100 88 86 72 88 98 81 74 71
306 260 262 272 283 41 101 153 118 106 116 139 142 320 13 64 80 143 115 145 129 135 153 120 136 135 141 133 117 115 160 144 136 128 124 122 125 115 109 106 111 102 81 83 62 91 87 78 74
319 201 208 250 91 72 74 124 120 141 149 152 320 117 112 34 126 116 142 144 148 144 155 141 148 150 151 156 151 131 112 165 149 144 135 137 118 112 124 123 130 107 98 86 84 81 93 89 78
250 249 228 203 124 116 113 106 151 153 127 138 201 110 80 103 108 133 147 155 145 157 141 154 154 159 159 159 165 163 147 163 168 164 156 149 150 155 146 138 152 123 116 108 106 82 77 90 90
272 271 232 195 137 128 120 148 162 146 117 112 199 123 91 115 144 144 154 166 153 157 146 144 154 159 166 170 159 160 157 126 167 157 159 154 156 160 162 170 156 173 163 143 153 119 90 40 1
283 269 273 135 152 158 149 166 201 160 150 134 62 138 100 147 137 151 163 162 161 157 166 163 170 175 171 180 181 177 185 154 130 163 173 173 166 180 187 184 166 179 193 216 216 140 168 238 331
282 271 213 208 179 159 151 170 156 208 116 93 241 139 144 143 141 139 166 171 166 177 175 175 182 178 182 185 194 191 196 194 178 154 199 178 170 194 205 193 204 199 209 219 208 171 206 260 288
282 252 221 200 197 153 157 183 174 87 153 194 154 44 106 126 135 141 162 194 155 200 205 192 186 188 188 187 184 202 209 210 225 195 171 183 221 201 209 209 181 208 223 230 204 201 227 250 247
234 240 236 255 198 169 178 201 168 190 187 192 170 119 135 147 162 163 173 185 189 196 214 202 202 198 196 196 186 204 200 212 211 217 207 217 227 232 256 337 175 213 227 232 218 217 207 224 261
186 241 343 123 26 298 175 200 181 215 199 209 202 173 166 171 180 183 190 193 196 196 200 217 215 202 194 213 201 197 206 207 211 212 217 224 232 224 215 234 202 217 210 231 209 214 227 231 243
234 246 303 92 36 225 192 197 209 225 124 22 117 142 169 185 189 192 195 196 195 200 199 198 213 227 212 213 206 211 210 206 212 210 212 217 225 227 232 223 230 214 223 218 240 231 233 248 244
232 190 216 117 240 248 4 221 247 229 235 159 154 188 183 194 199 199 199 198 199 199 201 202 199 206 225 229 218 219 218 210 221 218 212 216 220 224 226 229 228 234 230 237 237 246 246 239 240
114 210 218 215 211 223 252 222 262 224 217 210 197 201 204 204 203 198 206 207 205 207 206 202 201 201 204 214 239 234 225 225 218 226 221 217 227 224 227 230 232 233 234 239 237 244 245 244 249
140 210 231 222 216 229 255 244 229 236 169 234 222 228 216 219 220 222 215 214 216 213 213 212 209 208 207 203 214 230 249 229 229 224 230 227 222 234 232 231 238 238 237 241 249 246 245 254 256
205 245 226 187 214 180 226 252 238 256 240 239 237 231 229 238 238 234 234 237 222 222 215 215 213 218 216 216 204 215 227 243 231 231 229 229 228 225 230 232 235 237 241 236 238 246 248 247 250
205 237 220 190 203 248 224 252 245 139 239 253 246 243 246 251 252 250 246 246 244 246 242 232 221 219 223 224 223 215 214 227 247 233 231 231 228 228 226 234 234 238 236 241 240 242 246 252 252
205 224 212 234 125 232 247 248 257 204 225 253 265 262 256 255 253 254 252 242 242 240 244 242 236 227 220 223 226 231 226 215 212 243 241 231 229 227 230 232 238 236 240 243 242 249 250 251 258
304 214 242 195 83 284 246 257 263 266 268 262 258 255 257 255 259 256 253 250 249 244 242 226 229 228 221 212 219 222 227 219 232 239 247 241 231 230 226 235 239 238 225 238 244 239 242 250 258
229 226 231 271 243 257 275 272 270 262 257 254 258 255 256 263 261 260 251 253 253 248 244 236 236 230 215 219 213 226 226 235 227 223 227 244 249 240 232 235 240 242 239 235 248 248 232 245 227
224 237 246 261 322 249 289 276 247 248 246 249 255 259 264 265 270 273 272 259 250 247 236 237 235 238 228 216 219 216 234 240 247 238 228 213 215 233 237 237 240 234 236 234 236 242 234 238 219
228 226 251 267 272 272 91 290 275 251 241 228 247 248 259 268 272 262 262 256 249 256 267 257 256 249 239 242 222 221 223 224 226 221 229 225 226 234 240 230 234 242 229 236 233 230 233 226 238
246 149 219 240 258 284 255 250 242 219 261 252 244 222 229 288 297 277 277 301 310 314 272 256 253 237 237 229 230 225 228 241 245 211 233 239 232 227 237 239 242 246 236 230 236 231 228 226 229
137 156 158 200 249 253 233 219 258 184 259 192 129 163 200 327 313 328 103 107 85 78 75 82 120 96 176 214 222 232 237 241 247 239 250 249 247 248 243 247 259 258 253 240 236 238 235 233 231
185 169 152 209 208 251 95 209 264 281 206 200 237 297 304 303 240 199 143 124 94 76 64 63 79 75 72 73 64 32 285 270 264 288 289 332 294 286 300 309 278 273 277 270 253 247 244 244 235
197 190 202 254 215 216 142 230 231 273 47 271 242 276 297 281 190 188 133 106 96 83 69 73 66 66 63 71 78 75 52 57 56 35 359 336 342 351 347 320 315 311 297 280 271 257 250 245 243
193 215 299 294 116 270 212 232 278 242 218 202 242 311 324 314 194 166 118 70 66 64 63 63 85 77 60 53 56 56 46 44 40 26 13 5 351 345 337 320 314 309 304 299 294 272 264 273 268
230 172 174 225 229 240 242 254 242 204 170 119 103 66 36 5 354 174 176 158 133 97 72 73 74 77 70 72 64 59 47 35 30 31 27 8 354 344 332 332 327 322 319 316 312 300 289 278 276
187 205 221 255 225 265 301 245 103 185 122 125 103 58 18 351 328 253 223 201 181 149 119 84 71 82 86 81 79 75 62 46 45 39 24 9 349 354 344 338 333 333 332 334 325 317 316 312 308
237 217 211 215 200 236 286 264 143 122 141 79 4 80 334 335 301 256 225 220 215 204 190 196 170 129 78 77 84 77 64 48 41 32 20 9 358 349 344 340 336 341 344 345 338 329 335 321 320